TimeEST,TemperatureF,Dew PointF,Humidity,Sea Level PressureIn,VisibilityMPH,Wind Direction,Wind SpeedMPH,Gust SpeedMPH,PrecipitationIn,Events,Conditions,WindDirDegrees,DateUTC
12:15 AM,51.8,50.0,94,29.97,10.0,NNE,9.2,-,0.03,,Mostly Cloudy,20,2012-11-05 05:15:00
12:35 AM,51.8,50.0,94,29.95,9.0,NE,8.1,-,0.05,,Overcast,50,2012-11-05 05:35:00
12:55 AM,51.8,51.8,100,29.97,10.0,NNE,8.1,-,0.05,,Mostly Cloudy,20,2012-11-05 05:55:00
1:15 AM,50.0,50.0,100,29.96,10.0,North,12.7,-,0.02,,Overcast,10,2012-11-05 06:15:00
1:35 AM,50.0,48.2,94,29.95,10.0,North,15.0,-,0.02,,Mostly Cloudy,10,2012-11-05 06:35:00
1:55 AM,48.2,46.4,93,29.93,10.0,North,15.0,-,0.02,,Scattered Clouds,10,2012-11-05 06:55:00
2:15 AM,48.2,48.2,100,29.94,10.0,North,11.5,-,N/A,,Clear,360,2012-11-05 07:15:00
2:35 AM,48.2,46.4,93,29.94,10.0,North,8.1,-,N/A,,Mostly Cloudy,360,2012-11-05 07:35:00
2:55 AM,48.2,46.4,93,29.94,10.0,North,6.9,-,N/A,,Mostly Cloudy,10,2012-11-05 07:55:00
3:15 AM,46.4,46.4,100,29.95,10.0,North,6.9,-,N/A,,Scattered Clouds,350,2012-11-05 08:15:00
3:35 AM,46.4,46.4,100,29.95,10.0,North,8.1,-,N/A,,Mostly Cloudy,360,2012-11-05 08:35:00
3:55 AM,46.4,46.4,100,29.96,10.0,North,6.9,-,N/A,,Scattered Clouds,360,2012-11-05 08:55:00
4:15 AM,46.4,46.4,100,29.95,10.0,North,6.9,-,N/A,,Partly Cloudy,10,2012-11-05 09:15:00
4:35 AM,46.4,44.6,93,29.97,10.0,North,9.2,-,N/A,,Scattered Clouds,350,2012-11-05 09:35:00
4:55 AM,46.4,44.6,93,29.98,10.0,North,11.5,-,N/A,,Mostly Cloudy,350,2012-11-05 09:55:00
5:15 AM,46.4,46.4,100,29.98,10.0,North,10.4,-,N/A,,Overcast,350,2012-11-05 10:15:00
5:35 AM,46.4,46.4,100,29.98,10.0,North,12.7,-,N/A,,Overcast,360,2012-11-05 10:35:00
5:50 AM,46.4,46.4,100,29.99,10.0,North,11.5,-,N/A,,Mostly Cloudy,10,2012-11-05 10:50:00
6:45 AM,46.4,44.6,93,30.01,10.0,North,11.5,-,N/A,,Overcast,10,2012-11-05 11:45:00
7:46 AM,46.4,44.6,93,30.03,10.0,NNE,11.5,-,N/A,,Mostly Cloudy,20,2012-11-05 12:46:00
8:46 AM,48.2,44.6,87,30.05,10.0,NNE,13.8,-,N/A,,Scattered Clouds,20,2012-11-05 13:46:00
9:50 AM,51.8,44.6,76,30.05,10.0,NNE,16.1,-,N/A,,Clear,20,2012-11-05 14:50:00
10:45 AM,55.4,44.6,67,30.05,10.0,NNE,15.0,-,N/A,,Clear,20,2012-11-05 15:45:00
11:50 AM,57.2,44.6,63,30.03,10.0,NE,16.1,-,N/A,,Clear,40,2012-11-05 16:50:00
12:50 PM,59.0,42.8,55,30.02,10.0,North,11.5,-,N/A,,Clear,10,2012-11-05 17:50:00
1:50 PM,60.8,42.8,52,30.01,10.0,NNE,11.5,-,N/A,,Clear,20,2012-11-05 18:50:00
2:50 PM,60.8,42.8,52,30.00,10.0,North,9.2,-,N/A,,Clear,10,2012-11-05 19:50:00
3:45 PM,60.8,39.2,45,30.01,10.0,NNE,9.2,-,N/A,,Clear,20,2012-11-05 20:45:00
4:45 PM,57.2,42.8,59,30.01,10.0,NNE,9.2,-,N/A,,Clear,30,2012-11-05 21:45:00
5:50 PM,51.8,42.8,71,30.02,10.0,NNE,9.2,-,N/A,,Clear,30,2012-11-05 22:50:00
6:50 PM,48.2,44.6,87,30.04,10.0,NNE,6.9,-,N/A,,Clear,30,2012-11-05 23:50:00
7:45 PM,50.0,42.8,76,30.05,10.0,NE,6.9,-,N/A,,Clear,50,2012-11-06 00:45:00
8:45 PM,48.2,42.8,82,30.08,10.0,NE,9.2,-,N/A,,Clear,40,2012-11-06 01:45:00
11:15 PM,48.2,41.0,76,30.05,10.0,NE,8.1,-,N/A,,Clear,50,2012-11-06 04:15:00
11:35 PM,48.2,39.2,71,30.05,10.0,NNE,6.9,-,N/A,,Clear,20,2012-11-06 04:35:00
11:55 PM,48.2,41.0,76,30.06,10.0,North,6.9,-,N/A,,Clear,350,2012-11-06 04:55:00